Regional Weather Roundup
Issued by NWS

Home | Current Version | Previous Version | Graphics & Text | Print | Product List | Glossary On
Versions: 1 2 3 4 5 6 7 8 9 10 11 12 13 14 15 16 17 18 19 20 21 22 23 24 25 26 27 28 29 30 31 32 33 34 35 36 37 38 39 40 41 42 43 44 45 46 47 48 49 50
000
ASUS43 KBIS 270702
RWRND

NORTH DAKOTA REGIONAL WEATHER ROUNDUP
NATIONAL WEATHER SERVICE BISMARCK ND
200 AM CDT SUN MAY 27 2018

NOTE: "FAIR" INDICATES FEW OR NO CLOUDS BELOW 12,000 FEET WITH NO
SIGNIFICANT WEATHER AND/OR OBSTRUCTIONS TO VISIBILITY.


NDZ001>003-009>011-017-270800-
NORTHWEST NORTH DAKOTA

CITY           SKY/WX    TMP DP  RH WIND       PRES   REMARKS
WILLISTON      RAIN      64  59  83 NW16G29   29.84R
MINOT          CLOUDY    72  52  49 SE7       29.70F
$$

NDZ018>021-031>035-040>046-270800-
SOUTHWEST NORTH DAKOTA

CITY           SKY/WX    TMP DP  RH WIND       PRES   REMARKS
BISMARCK       MOCLDY    72  55  55 E5        29.70F
DICKINSON      CLOUDY    71  54  54 SE14G21   29.65F
GARRISON         N/A     65  57  75 S5        29.69F
HETTINGER ARPT PTCLDY    71  57  61 SE14      29.69S
$$

NDZ004>008-012>016-024-026-027-054-270800-
NORTHEAST NORTH DAKOTA

CITY           SKY/WX    TMP DP  RH WIND       PRES   REMARKS
GRAND FORKS    FAIR      60  57  89 CALM      29.74S
GRND FRKS AFB  FAIR      57  54  89 CALM      29.75S
DEVILS LAKE    FAIR      65  56  72 SE6       29.76F
$$

NDZ022-023-025-028>030-036>039-047>053-270800-
SOUTHEAST NORTH DAKOTA

CITY           SKY/WX    TMP DP  RH WIND       PRES   REMARKS
FARGO          FAIR      63  51  65 CALM      29.73S
JAMESTOWN      CLOUDY    69  52  54 E9        29.73F
$$





USA.gov is the U.S. government's official web portal to all federal, state and local government web resources and services.